Time,TemperatureF,DewpointF,PressureIn,WindDirection,WindDirectionDegrees,WindSpeedMPH,WindSpeedGustMPH,Humidity,HourlyPrecipIn,Conditions,Clouds,dailyrainin,SoftwareType,DateUTC
2013-07-09 00:02:00,75.0,72.0,29.97,SE,128,0.0,32.0,89,0.00,,,0.24,,2013-07-09 05:02:00,
2013-07-09 00:11:00,75.0,72.0,29.97,SE,128,0.0,32.0,89,0.00,,,0.24,,2013-07-09 05:11:00,
2013-07-09 00:22:00,75.0,73.0,29.97,SE,128,0.0,2.0,93,0.00,,,0.24,,2013-07-09 05:22:00,
2013-07-09 00:33:00,75.0,73.0,29.97,South,185,0.0,3.0,93,0.00,,,0.24,,2013-07-09 05:33:00,
2013-07-09 00:42:00,75.0,73.0,29.97,South,185,0.0,3.0,93,0.00,,,0.24,,2013-07-09 05:42:00,
2013-07-09 00:52:00,75.0,73.0,29.97,South,185,0.0,3.0,93,0.00,,,0.24,,2013-07-09 05:52:00,
2013-07-09 01:01:00,74.0,72.0,29.97,South,185,0.0,3.0,93,0.00,,,0.24,,2013-07-09 06:01:00,
2013-07-09 01:11:00,74.0,72.0,29.97,South,185,0.0,3.0,93,0.00,,,0.24,,2013-07-09 06:11:00,
2013-07-09 01:22:00,75.0,72.0,29.98,South,185,0.0,3.0,91,0.00,,,0.24,,2013-07-09 06:22:00,
2013-07-09 01:33:00,74.0,71.0,29.98,South,185,0.0,3.0,91,0.00,,,0.24,,2013-07-09 06:33:00,
2013-07-09 01:43:00,74.0,71.0,29.98,South,185,0.0,3.0,91,0.00,,,0.24,,2013-07-09 06:43:00,
2013-07-09 01:53:00,74.0,71.0,29.98,South,185,0.0,3.0,91,0.00,,,0.24,,2013-07-09 06:53:00,
2013-07-09 02:02:00,75.0,72.0,29.98,South,185,0.0,3.0,91,0.00,,,0.24,,2013-07-09 07:02:00,
2013-07-09 02:12:00,75.0,72.0,29.98,South,172,2.0,4.0,91,0.00,,,0.24,,2013-07-09 07:12:00,
2013-07-09 02:22:00,75.0,73.0,29.98,SSE,167,2.0,5.0,94,0.00,,,0.24,,2013-07-09 07:22:00,
2013-07-09 02:34:00,75.0,73.0,29.98,SSE,148,0.0,5.0,94,0.00,,,0.24,,2013-07-09 07:34:00,
2013-07-09 02:43:00,75.0,73.0,29.98,SE,143,0.0,5.0,94,0.00,,,0.24,,2013-07-09 07:43:00,
2013-07-09 02:53:00,74.0,72.0,29.98,SE,143,0.0,5.0,94,0.00,,,0.24,,2013-07-09 07:53:00,
2013-07-09 03:01:00,75.0,73.0,29.98,ESE,112,0.0,5.0,94,0.00,,,0.24,,2013-07-09 08:01:00,
2013-07-09 03:11:00,74.0,72.0,29.98,SSE,153,0.0,5.0,94,0.00,,,0.24,,2013-07-09 08:11:00,
2013-07-09 03:22:00,75.0,73.0,29.98,SSE,149,0.0,5.0,94,0.00,,,0.24,,2013-07-09 08:22:00,
2013-07-09 03:33:00,75.0,73.0,29.98,SE,138,0.0,5.0,94,0.00,,,0.24,,2013-07-09 08:33:00,
2013-07-09 03:43:00,75.0,73.0,29.98,SE,138,0.0,5.0,94,0.00,,,0.24,,2013-07-09 08:43:00,
2013-07-09 03:52:00,75.0,73.0,29.98,SE,138,0.0,5.0,94,0.00,,,0.24,,2013-07-09 08:52:00,
2013-07-09 04:02:00,75.0,73.0,29.98,SE,138,0.0,5.0,94,0.00,,,0.24,,2013-07-09 09:02:00,
2013-07-09 04:12:00,75.0,73.0,29.98,SSE,152,1.0,5.0,94,0.00,,,0.24,,2013-07-09 09:12:00,
2013-07-09 04:22:00,75.0,73.0,29.98,SE,124,0.0,5.0,94,0.00,,,0.24,,2013-07-09 09:22:00,
2013-07-09 04:34:00,75.0,73.0,29.98,SSE,153,0.0,5.0,94,0.00,,,0.23,,2013-07-09 09:34:00,
2013-07-09 04:42:00,75.0,73.0,29.98,South,177,2.0,6.0,94,0.00,,,0.17,,2013-07-09 09:42:00,
2013-07-09 04:52:00,75.0,73.0,29.98,SSE,160,2.0,6.0,94,0.00,,,0.06,,2013-07-09 09:52:00,
2013-07-09 05:01:00,75.0,73.0,29.98,SE,144,1.0,6.0,94,0.00,,,0.06,,2013-07-09 10:01:00,
2013-07-09 05:22:00,75.0,73.0,29.98,SSW,203,2.0,6.0,93,0.00,,,0.06,,2013-07-09 10:22:00,
2013-07-09 05:33:00,75.0,73.0,29.98,SSW,201,1.0,6.0,93,0.00,,,0.06,,2013-07-09 10:33:00,
2013-07-09 05:42:00,75.0,73.0,29.98,SSW,200,2.0,6.0,93,0.00,,,0.06,,2013-07-09 10:42:00,
2013-07-09 05:52:00,75.0,73.0,29.98,SSE,154,1.0,6.0,93,0.00,,,0.00,,2013-07-09 10:52:00,
2013-07-09 06:01:00,75.0,73.0,29.98,SSE,159,1.0,6.0,93,0.00,,,0.00,,2013-07-09 11:01:00,
2013-07-09 06:11:00,75.0,73.0,29.98,South,177,2.0,6.0,93,0.00,,,0.00,,2013-07-09 11:11:00,
2013-07-09 06:22:00,75.0,73.0,29.98,SSW,202,1.0,6.0,94,0.00,,,0.00,,2013-07-09 11:22:00,
2013-07-09 06:33:00,76.0,74.0,29.98,South,186,2.0,6.0,94,0.00,,,0.00,,2013-07-09 11:33:00,
2013-07-09 06:42:00,76.0,74.0,29.98,South,177,2.0,6.0,94,0.00,,,0.00,,2013-07-09 11:42:00,
2013-07-09 06:53:00,76.0,74.0,29.98,SSW,202,2.0,6.0,94,0.00,,,0.00,,2013-07-09 11:53:00,
2013-07-09 07:02:00,76.0,74.0,29.98,SSW,206,3.0,6.0,94,0.00,,,0.00,,2013-07-09 12:02:00,
2013-07-09 07:11:00,76.0,74.0,29.98,South,174,2.0,6.0,94,0.00,,,0.00,,2013-07-09 12:11:00,
2013-07-09 07:22:00,76.0,73.0,29.98,SSE,163,2.0,6.0,89,0.00,,,0.00,,2013-07-09 12:22:00,
2013-07-09 07:33:00,77.0,74.0,29.98,SSE,161,2.0,6.0,89,0.00,,,0.00,,2013-07-09 12:33:00,
2013-07-09 07:43:00,77.0,74.0,29.98,WSW,241,6.0,11.0,89,0.00,,,0.00,,2013-07-09 12:43:00,
2013-07-09 07:52:00,76.0,73.0,29.98,NW,313,2.0,11.0,89,0.04,,,0.04,,2013-07-09 12:52:00,
2013-07-09 08:01:00,75.0,72.0,29.98,SSW,208,3.0,11.0,89,0.11,,,0.11,,2013-07-09 13:01:00,
2013-07-09 08:11:00,75.0,72.0,29.97,SSE,166,3.0,11.0,89,0.16,,,0.16,,2013-07-09 13:11:00,
2013-07-09 08:22:00,75.0,73.0,29.97,SSE,165,8.0,12.0,93,0.21,,,0.21,,2013-07-09 13:22:00,
2013-07-09 08:33:00,75.0,73.0,29.97,SSE,163,2.0,12.0,93,0.22,,,0.22,,2013-07-09 13:33:00,
2013-07-09 08:43:00,75.0,73.0,29.97,SSE,151,2.0,12.0,93,0.22,,,0.22,,2013-07-09 13:43:00,
2013-07-09 08:53:00,76.0,74.0,29.97,South,173,3.0,12.0,93,0.18,,,0.22,,2013-07-09 13:53:00,
2013-07-09 09:01:00,76.0,74.0,29.97,SE,133,0.0,12.0,93,0.11,,,0.22,,2013-07-09 14:01:00,
2013-07-09 09:11:00,77.0,75.0,29.97,SSW,209,1.0,12.0,93,0.06,,,0.22,,2013-07-09 14:11:00,
2013-07-09 09:22:00,77.0,74.0,29.97,SW,218,2.0,12.0,91,0.01,,,0.22,,2013-07-09 14:22:00,
2013-07-09 09:34:00,77.0,74.0,29.97,SSW,201,6.0,12.0,91,0.00,,,0.22,,2013-07-09 14:34:00,
2013-07-09 09:43:00,76.0,73.0,29.98,WSW,240,7.0,19.0,91,0.00,,,0.22,,2013-07-09 14:43:00,
2013-07-09 09:53:00,76.0,73.0,29.98,SSW,195,5.0,19.0,91,0.01,,,0.23,,2013-07-09 14:53:00,
2013-07-09 10:02:00,76.0,73.0,29.98,South,189,3.0,19.0,91,0.01,,,0.23,,2013-07-09 15:02:00,
2013-07-09 10:12:00,76.0,73.0,29.98,NNE,31,1.0,19.0,91,0.01,,,0.23,,2013-07-09 15:12:00,
2013-07-09 10:22:00,76.0,73.0,29.98,South,170,1.0,19.0,91,0.01,,,0.23,,2013-07-09 15:22:00,
2013-07-09 10:33:00,76.0,73.0,29.98,SSW,208,0.0,19.0,91,0.01,,,0.23,,2013-07-09 15:33:00,
2013-07-09 10:43:00,75.0,72.0,29.98,SSW,208,0.0,19.0,91,0.01,,,0.23,,2013-07-09 15:43:00,
2013-07-09 10:52:00,76.0,73.0,29.98,SSW,208,0.0,19.0,91,0.00,,,0.23,,2013-07-09 15:52:00,
2013-07-09 11:02:00,77.0,74.0,29.98,NNE,13,0.0,19.0,91,0.00,,,0.23,,2013-07-09 16:02:00,
2013-07-09 11:11:00,78.0,75.0,29.98,ESE,123,2.0,19.0,91,0.00,,,0.23,,2013-07-09 16:11:00,
2013-07-09 11:22:00,79.0,75.0,29.98,SE,144,3.0,19.0,89,0.00,,,0.23,,2013-07-09 16:22:00,
2013-07-09 11:34:00,80.0,76.0,29.98,ESE,119,1.0,19.0,89,0.00,,,0.23,,2013-07-09 16:34:00,
2013-07-09 11:43:00,80.0,76.0,29.98,South,172,5.0,19.0,89,0.00,,,0.23,,2013-07-09 16:43:00,
2013-07-09 11:52:00,81.0,77.0,29.98,SSE,164,2.0,19.0,89,0.00,,,0.23,,2013-07-09 16:52:00,
2013-07-09 12:02:00,81.0,77.0,29.98,SSE,154,0.0,19.0,89,0.00,,,0.23,,2013-07-09 17:02:00,
2013-07-09 12:11:00,79.0,75.0,29.97,NNW,335,2.0,19.0,89,0.00,,,0.23,,2013-07-09 17:11:00,
2013-07-09 12:22:00,78.0,74.0,29.97,NNW,337,1.0,19.0,89,0.00,,,0.23,,2013-07-09 17:22:00,
2013-07-09 12:35:00,78.0,74.0,29.97,NNW,339,0.0,19.0,89,0.01,,,0.24,,2013-07-09 17:35:00,
2013-07-09 12:45:00,77.0,74.0,29.97,West,267,0.0,19.0,89,0.01,,,0.24,,2013-07-09 17:45:00,
2013-07-09 12:53:00,77.0,74.0,29.98,ENE,65,3.0,19.0,89,0.01,,,0.24,,2013-07-09 17:53:00,
2013-07-09 13:02:00,78.0,74.0,29.98,SSE,160,1.0,19.0,89,0.01,,,0.24,,2013-07-09 18:02:00,
2013-07-09 13:11:00,79.0,75.0,29.98,SSE,158,0.0,19.0,89,0.01,,,0.24,,2013-07-09 18:11:00,
2013-07-09 13:22:00,80.0,76.0,29.98,SE,140,1.0,19.0,89,0.01,,,0.24,,2013-07-09 18:22:00,
2013-07-09 13:32:00,79.0,75.0,29.98,ESE,112,2.0,19.0,89,0.00,,,0.24,,2013-07-09 18:32:00,
2013-07-09 13:43:00,80.0,76.0,29.98,SE,139,2.0,19.0,89,0.00,,,0.24,,2013-07-09 18:43:00,
2013-07-09 13:52:00,80.0,76.0,29.98,SE,126,3.0,19.0,89,0.00,,,0.24,,2013-07-09 18:52:00,
2013-07-09 14:01:00,81.0,77.0,29.98,SE,144,2.0,19.0,89,0.00,,,0.24,,2013-07-09 19:01:00,
2013-07-09 14:11:00,82.0,78.0,29.98,SSE,160,6.0,19.0,89,0.00,,,0.24,,2013-07-09 19:11:00,
2013-07-09 14:22:00,82.0,78.0,29.98,South,184,2.0,19.0,87,0.00,,,0.24,,2013-07-09 19:22:00,
2013-07-09 14:33:00,82.0,78.0,29.98,South,185,3.0,19.0,87,0.00,,,0.24,,2013-07-09 19:33:00,
2013-07-09 14:42:00,82.0,78.0,29.97,SSE,153,2.0,19.0,87,0.00,,,0.24,,2013-07-09 19:42:00,
2013-07-09 14:52:00,83.0,79.0,29.97,South,170,1.0,19.0,87,0.00,,,0.24,,2013-07-09 19:52:00,
2013-07-09 15:01:00,83.0,79.0,29.97,SSE,159,5.0,19.0,87,0.00,,,0.24,,2013-07-09 20:01:00,
2013-07-09 15:11:00,83.0,79.0,29.97,South,170,5.0,19.0,87,0.00,,,0.24,,2013-07-09 20:11:00,
2013-07-09 15:22:00,84.0,77.0,29.97,WSW,245,2.0,19.0,80,0.00,,,0.24,,2013-07-09 20:22:00,
2013-07-09 15:32:00,85.0,78.0,29.97,SSE,166,6.0,19.0,80,0.00,,,0.24,,2013-07-09 20:32:00,
2013-07-09 15:42:00,85.0,78.0,29.97,SSE,158,6.0,19.0,80,0.00,,,0.24,,2013-07-09 20:42:00,
2013-07-09 15:52:00,86.0,79.0,29.97,SW,230,6.0,19.0,80,0.00,,,0.24,,2013-07-09 20:52:00,
2013-07-09 16:01:00,85.0,78.0,29.97,SSE,168,5.0,19.0,80,0.00,,,0.24,,2013-07-09 21:01:00,
2013-07-09 16:11:00,86.0,79.0,29.97,SW,223,3.0,19.0,80,0.00,,,0.24,,2013-07-09 21:11:00,
2013-07-09 16:22:00,86.0,80.0,29.97,SSW,207,6.0,19.0,82,0.00,,,0.24,,2013-07-09 21:22:00,
2013-07-09 16:32:00,87.0,81.0,29.96,South,175,7.0,19.0,82,0.00,,,0.24,,2013-07-09 21:32:00,
2013-07-09 16:42:00,87.0,81.0,29.96,SW,230,6.0,19.0,82,0.00,,,0.24,,2013-07-09 21:42:00,
2013-07-09 16:52:00,87.0,81.0,29.96,South,188,5.0,19.0,82,0.00,,,0.24,,2013-07-09 21:52:00,
2013-07-09 18:02:00,87.0,79.0,29.96,SSW,197,7.0,19.0,78,0.00,,,0.24,,2013-07-09 23:02:00,
2013-07-09 18:11:00,89.0,81.0,29.95,SSW,206,5.0,19.0,78,0.00,,,0.24,,2013-07-09 23:11:00,
2013-07-09 18:22:00,89.0,81.0,29.95,SSW,193,3.0,19.0,78,0.00,,,0.24,,2013-07-09 23:22:00,
2013-07-09 18:33:00,89.0,81.0,29.95,South,189,3.0,19.0,78,0.00,,,0.24,,2013-07-09 23:33:00,
2013-07-09 18:43:00,88.0,80.0,29.95,WSW,237,2.0,19.0,78,0.00,,,0.24,,2013-07-09 23:43:00,
2013-07-09 18:52:00,89.0,81.0,29.95,South,191,3.0,19.0,78,0.00,,,0.24,,2013-07-09 23:52:00,
2013-07-09 19:01:00,89.0,81.0,29.95,SSE,161,1.0,19.0,78,0.00,,,0.24,,2013-07-10 00:01:00,
2013-07-09 19:11:00,89.0,81.0,29.94,South,186,2.0,19.0,78,0.00,,,0.24,,2013-07-10 00:11:00,
2013-07-09 19:22:00,88.0,80.0,29.94,SW,222,2.0,19.0,78,0.00,,,0.24,,2013-07-10 00:22:00,
2013-07-09 19:33:00,89.0,81.0,29.94,SW,226,3.0,19.0,78,0.00,,,0.24,,2013-07-10 00:33:00,
2013-07-09 19:42:00,89.0,81.0,29.94,SW,216,1.0,19.0,78,0.00,,,0.24,,2013-07-10 00:42:00,
2013-07-09 19:52:00,89.0,81.0,29.93,WSW,244,1.0,19.0,78,0.00,,,0.24,,2013-07-10 00:52:00,
2013-07-09 20:01:00,87.0,79.0,29.93,SW,226,1.0,19.0,78,0.00,,,0.24,,2013-07-10 01:01:00,
2013-07-09 20:11:00,86.0,78.0,29.93,SSW,198,0.0,19.0,78,0.00,,,0.24,,2013-07-10 01:11:00,
2013-07-09 20:22:00,84.0,79.0,29.93,SSW,209,1.0,19.0,86,0.00,,,0.24,,2013-07-10 01:22:00,
2013-07-09 20:33:00,83.0,78.0,29.93,South,186,1.0,19.0,86,0.00,,,0.24,,2013-07-10 01:33:00,
2013-07-09 20:43:00,83.0,78.0,29.93,South,174,0.0,19.0,86,0.00,,,0.24,,2013-07-10 01:43:00,
2013-07-09 20:52:00,82.0,77.0,29.93,SSE,168,0.0,19.0,86,0.00,,,0.24,,2013-07-10 01:52:00,
2013-07-09 21:02:00,81.0,76.0,29.93,SSE,168,0.0,19.0,86,0.00,,,0.24,,2013-07-10 02:02:00,
2013-07-09 21:11:00,81.0,76.0,29.93,SSE,168,0.0,19.0,86,0.00,,,0.24,,2013-07-10 02:11:00,
2013-07-09 21:22:00,80.0,78.0,29.93,South,169,1.0,19.0,94,0.00,,,0.24,,2013-07-10 02:22:00,
2013-07-09 21:34:00,80.0,78.0,29.93,East,93,0.0,19.0,94,0.00,,,0.24,,2013-07-10 02:34:00,
2013-07-09 21:43:00,80.0,78.0,29.93,ESE,117,0.0,19.0,94,0.00,,,0.24,,2013-07-10 02:43:00,
2013-07-09 21:53:00,80.0,78.0,29.92,ESE,117,0.0,19.0,94,0.00,,,0.24,,2013-07-10 02:53:00,
2013-07-09 22:01:00,79.0,77.0,29.92,ESE,117,0.0,19.0,94,0.00,,,0.24,,2013-07-10 03:01:00,
2013-07-09 22:11:00,79.0,77.0,29.92,ESE,117,0.0,19.0,94,0.00,,,0.24,,2013-07-10 03:11:00,
2013-07-09 22:22:00,78.0,76.0,29.92,ESE,117,0.0,19.0,93,0.00,,,0.24,,2013-07-10 03:22:00,
2013-07-09 22:32:00,78.0,76.0,29.92,ESE,117,0.0,19.0,93,0.00,,,0.24,,2013-07-10 03:32:00,
2013-07-09 22:43:00,78.0,76.0,29.92,ESE,117,0.0,19.0,93,0.00,,,0.24,,2013-07-10 03:43:00,
2013-07-09 22:52:00,78.0,76.0,29.92,ESE,117,0.0,19.0,93,0.00,,,0.24,,2013-07-10 03:52:00,
2013-07-09 23:01:00,77.0,75.0,29.92,ESE,117,0.0,19.0,93,0.00,,,0.24,,2013-07-10 04:01:00,
2013-07-09 23:11:00,77.0,75.0,29.92,ESE,117,0.0,19.0,93,0.00,,,0.24,,2013-07-10 04:11:00,
2013-07-09 23:22:00,77.0,75.0,29.92,ESE,117,0.0,19.0,94,0.00,,,0.24,,2013-07-10 04:22:00,
2013-07-09 23:32:00,77.0,75.0,29.91,ESE,117,0.0,19.0,94,0.00,,,0.24,,2013-07-10 04:32:00,
2013-07-09 23:43:00,77.0,75.0,29.91,ESE,117,0.0,19.0,94,0.00,,,0.24,,2013-07-10 04:43:00,
2013-07-09 23:52:00,77.0,75.0,29.91,ESE,117,0.0,19.0,94,0.00,,,0.24,,2013-07-10 04:52:00,